| time (UTC) | temp C | wind direction | speed KPH | gust KPH | rain 1hr cm | rain 24hr cm | rain mn cm | humidity % | barometer mb |
| 20260831220245 | 37 | 164 | 4.8 | 8.0 | 0.00 | 0.00 | 0.00 | 29 | 1013.1 |
| 20260831215244 | 38 | 144 | 3.2 | 9.7 | 0.00 | 0.00 | 0.00 | 29 | 1013.3 |
| 20260831214745 | 38 | 146 | 3.2 | 8.0 | 0.00 | 0.00 | 0.00 | 28 | 1013.3 |
| 20260831214244 | 37 | 148 | 4.8 | 12.9 | 0.00 | 0.00 | 0.00 | 26 | 1013.3 |
| 20260831213745 | 37 | 144 | 4.8 | 12.9 | 0.00 | 0.00 | 0.00 | 28 | 1013.4 |
| 20260831212745 | 37 | 162 | 3.2 | 11.3 | 0.00 | 0.00 | 0.00 | 30 | 1013.5 |
| 20260831212245 | 37 | 173 | 3.2 | 6.4 | 0.00 | 0.00 | 0.00 | 32 | 1013.6 |
| 20260831211745 | 37 | 171 | 3.2 | 8.0 | 0.00 | 0.00 | 0.00 | 31 | 1013.6 |
| 20260831211246 | 37 | 161 | 4.8 | 9.7 | 0.00 | 0.00 | 0.00 | 32 | 1013.7 |
| 20260831210744 | 36 | 150 | 6.4 | 16.1 | 0.00 | 0.00 | 0.00 | 33 | 1013.9 |
| 20260831205744 | 37 | 162 | 4.8 | 12.9 | 0.00 | 0.00 | 0.00 | 33 | 1014.0 |
| 20260831205244 | 37 | 150 | 6.4 | 14.5 | 0.00 | 0.00 | 0.00 | 33 | 1014.1 |
| 20260831204744 | 37 | 144 | 6.4 | 14.5 | 0.00 | 0.00 | 0.00 | 33 | 1014.1 |
| 20260831204245 | 37 | 143 | 6.4 | 14.5 | 0.00 | 0.00 | 0.00 | 31 | 1014.3 |
| 20260831203746 | 37 | 142 | 6.4 | 12.9 | 0.00 | 0.00 | 0.00 | 34 | 1014.3 |
| 20260831203245 | 37 | 148 | 6.4 | 12.9 | 0.00 | 0.00 | 0.00 | 34 | 1014.4 |
| 20260831202744 | 36 | 156 | 4.8 | 12.9 | 0.00 | 0.00 | 0.00 | 35 | 1014.6 |
| 20260831202245 | 37 | 140 | 4.8 | 14.5 | 0.00 | 0.00 | 0.00 | 34 | 1014.6 |
| 20260831201245 | 37 | 142 | 6.4 | 14.5 | 0.00 | 0.00 | 0.00 | 36 | 1014.9 |
| 20260831200245 | 37 | 148 | 6.4 | 16.1 | 0.00 | 0.00 | 0.00 | 35 | 1015.0 |
| 20260831195745 | 37 | 152 | 6.4 | 12.9 | 0.00 | 0.00 | 0.00 | 36 | 1014.9 |
| 20260831194244 | 36 | 149 | 6.4 | 12.9 | 0.00 | 0.00 | 0.00 | 37 | 1015.1 |
| 20260831193246 | 36 | 149 | 6.4 | 11.3 | 0.00 | 0.00 | 0.00 | 37 | 1015.2 |
| 20260831192244 | 36 | 159 | 6.4 | 12.9 | 0.00 | 0.00 | 0.00 | 37 | 1015.4 |
| 20260831191245 | 36 | 141 | 6.4 | 16.1 | 0.00 | 0.00 | 0.00 | 37 | 1015.4 |
| 20260831190744 | 36 | 147 | 6.4 | 16.1 | 0.00 | 0.00 | 0.00 | 37 | 1015.6 |
| 20260831190245 | 36 | 153 | 4.8 | 9.7 | 0.00 | 0.00 | 0.00 | 38 | 1015.6 |
| 20260831185245 | 36 | 144 | 4.8 | 12.9 | 0.00 | 0.00 | 0.00 | 37 | 1015.7 |
| 20260831184745 | 36 | 143 | 6.4 | 14.5 | 0.00 | 0.00 | 0.00 | 39 | 1015.7 |
| 20260831184244 | 36 | 142 | 6.4 | 14.5 | 0.00 | 0.00 | 0.00 | 37 | 1015.8 |
| 20260831183745 | 36 | 141 | 4.8 | 12.9 | 0.00 | 0.00 | 0.00 | 38 | 1015.9 |
| 20260831183244 | 36 | 144 | 4.8 | 14.5 | 0.00 | 0.00 | 0.00 | 39 | 1015.9 |
| 20260831182745 | 36 | 149 | 4.8 | 14.5 | 0.00 | 0.00 | 0.00 | 38 | 1015.9 |
| 20260831182244 | 36 | 148 | 4.8 | 9.7 | 0.00 | 0.00 | 0.00 | 40 | 1016.0 |
| 20260831181744 | 36 | 152 | 4.8 | 11.3 | 0.00 | 0.00 | 0.00 | 40 | 1016.0 |
| 20260831181245 | 35 | 161 | 4.8 | 14.5 | 0.00 | 0.00 | 0.00 | 39 | 1016.1 |
| 20260831180744 | 35 | 157 | 6.4 | 14.5 | 0.00 | 0.00 | 0.00 | 40 | 1016.2 |
| 20260831175745 | 35 | 153 | 4.8 | 12.9 | 0.00 | 0.00 | 0.00 | 42 | 1016.3 |
| 20260831175246 | 35 | 165 | 4.8 | 14.5 | 0.00 | 0.00 | 0.00 | 40 | 1016.4 |
| 20260831174745 | 35 | 153 | 6.4 | 14.5 | 0.00 | 0.00 | 0.00 | 39 | 1016.5 |
| 20260831174244 | 35 | 145 | 4.8 | 14.5 | 0.00 | 0.00 | 0.00 | 40 | 1016.6 |
| 20260831173745 | 35 | 148 | 3.2 | 14.5 | 0.00 | 0.00 | 0.00 | 43 | 1016.7 |
| 20260831173245 | 35 | 159 | 3.2 | 8.0 | 0.00 | 0.00 | 0.00 | 44 | 1016.8 |
| 20260831172746 | 35 | 176 | 3.2 | 9.7 | 0.00 | 0.00 | 0.00 | 44 | 1016.9 |
| 20260831172245 | 35 | 166 | 4.8 | 11.3 | 0.00 | 0.00 | 0.00 | 45 | 1016.9 |
| 20260831171745 | 35 | 151 | 4.8 | 12.9 | 0.00 | 0.00 | 0.00 | 46 | 1016.9 |
| 20260831171245 | 35 | 142 | 4.8 | 12.9 | 0.00 | 0.00 | 0.00 | 46 | 1017.0 |
| 20260831170744 | 34 | 152 | 4.8 | 9.7 | 0.00 | 0.00 | 0.00 | 47 | 1017.1 |
| 20260831170245 | 34 | 161 | 4.8 | 12.9 | 0.00 | 0.00 | 0.00 | 47 | 1017.1 |
| 20260831165744 | 34 | 150 | 4.8 | 12.9 | 0.00 | 0.00 | 0.00 | 47 | 1017.1 |
| 20260831164746 | 33 | 147 | 4.8 | 12.9 | 0.00 | 0.00 | 0.00 | 48 | 1017.2 |
| 20260831164245 | 33 | 164 | 3.2 | 12.9 | 0.00 | 0.00 | 0.00 | 48 | 1017.1 |
| 20260831163745 | 33 | 175 | 3.2 | 9.7 | 0.00 | 0.00 | 0.00 | 49 | 1017.2 |
| 20260831163244 | 33 | 173 | 3.2 | 8.0 | 0.00 | 0.00 | 0.00 | 49 | 1017.3 |
| 20260831162745 | 33 | 184 | 3.2 | 9.7 | 0.00 | 0.00 | 0.00 | 49 | 1017.3 |
| 20260831162246 | 33 | 185 | 3.2 | 9.7 | 0.00 | 0.00 | 0.00 | 50 | 1017.3 |
| 20260831161245 | 33 | 155 | 3.2 | 9.7 | 0.00 | 0.00 | 0.00 | 48 | 1017.2 |
| 20260831160244 | 33 | 164 | 3.2 | 8.0 | 0.00 | 0.00 | 0.00 | 50 | 1017.3 |
| 20260831155745 | 32 | 169 | 3.2 | 9.7 | 0.00 | 0.00 | 0.00 | 52 | 1017.2 |
| 20260831154746 | 32 | 209 | 3.2 | 6.4 | 0.00 | 0.00 | 0.00 | 53 | 1017.1 |
| 20260831153744 | 32 | 201 | 3.2 | 11.3 | 0.00 | 0.00 | 0.00 | 56 | 1017.1 |
| 20260831152744 | 31 | 210 | 3.2 | 9.7 | 0.00 | 0.00 | 0.00 | 59 | 1017.1 |
| 20260831152245 | 31 | 191 | 3.2 | 8.0 | 0.00 | 0.00 | 0.00 | 60 | 1017.0 |
| 20260831151744 | 31 | 176 | 3.2 | 8.0 | 0.00 | 0.00 | 0.00 | 62 | 1017.0 |
| 20260831150244 | 30 | 247 | 4.8 | 11.3 | 0.00 | 0.00 | 0.00 | 66 | 1017.1 |
| 20260831145745 | 30 | 235 | 3.2 | 9.7 | 0.00 | 0.00 | 0.00 | 68 | 1017.1 |
| 20260831145245 | 30 | 211 | 3.2 | 6.4 | 0.00 | 0.00 | 0.00 | 69 | 1017.0 |
| 20260831144746 | 30 | 216 | 3.2 | 12.9 | 0.00 | 0.00 | 0.00 | 70 | 1017.1 |
| 20260831144245 | 29 | 224 | 4.8 | 12.9 | 0.00 | 0.00 | 0.00 | 70 | 1017.0 |
| 20260831143745 | 28 | 236 | 4.8 | 9.7 | 0.00 | 0.00 | 0.00 | 72 | 1017.0 |
| 20260831143245 | 28 | 232 | 3.2 | 9.7 | 0.00 | 0.00 | 0.00 | 73 | 1017.0 |
| 20260831142246 | 28 | 208 | 3.2 | 11.3 | 0.00 | 0.00 | 0.00 | 75 | 1016.9 |
| 20260831141745 | 28 | 212 | 3.2 | 11.3 | 0.00 | 0.00 | 0.00 | 76 | 1017.0 |
| 20260831141245 | 27 | 213 | 3.2 | 11.3 | 0.00 | 0.00 | 0.00 | 77 | 1016.9 |
| 20260831140746 | 27 | 220 | 4.8 | 11.3 | 0.00 | 0.00 | 0.00 | 79 | 1016.9 |
| 20260831140245 | 27 | 200 | 3.2 | 11.3 | 0.00 | 0.00 | 0.00 | 79 | 1016.9 |
| 20260831135745 | 27 | 199 | 1.6 | 8.0 | 0.00 | 0.00 | 0.00 | 80 | 1016.8 |
| 20260831134745 | 26 | 199 | 1.6 | 4.8 | 0.00 | 0.00 | 0.00 | 83 | 1016.8 |
| 20260831132745 | 25 | 0 | 0.0 | 3.2 | 0.00 | 0.00 | 0.00 | 86 | 1016.7 |
| 20260831132245 | 25 | 0 | 0.0 | 3.2 | 0.00 | 0.00 | 0.00 | 86 | 1016.7 |
| 20260831131745 | 25 | 0 | 0.0 | 3.2 | 0.00 | 0.00 | 0.00 | 86 | 1016.6 |
| 20260831131246 | 25 | 0 | 0.0 | 1.6 | 0.00 | 0.00 | 0.00 | 87 | 1016.5 |
| 20260831130745 | 25 | 177 | 1.6 | 3.2 | 0.00 | 0.00 | 0.00 | 87 | 1016.3 |
| 20260831130246 | 24 | 172 | 1.6 | 3.2 | 0.00 | 0.00 | 0.00 | 87 | 1016.3 |
| 20260831125746 | 24 | 0 | 0.0 | 3.2 | 0.00 | 0.00 | 0.00 | 87 | 1016.2 |
| 20260831125246 | 24 | 0 | 0.0 | 1.6 | 0.00 | 0.00 | 0.00 | 87 | 1016.2 |
| 20260831124745 | 24 | 0 | 0.0 | 1.6 | 0.00 | 0.00 | 0.00 | 87 | 1016.1 |
| 20260831124245 | 24 | 0 | 0.0 | 3.2 | 0.00 | 0.00 | 0.00 | 87 | 1016.1 |
| 20260831123745 | 24 | 0 | 0.0 | 3.2 | 0.00 | 0.00 | 0.00 | 87 | 1016.2 |
| 20260831123245 | 24 | 0 | 0.0 | 1.6 | 0.00 | 0.00 | 0.00 | 87 | 1016.1 |
| 20260831122245 | 24 | 159 | 1.6 | 3.2 | 0.00 | 0.00 | 0.00 | 87 | 1016.0 |
| 20260831121745 | 24 | 153 | 1.6 | 3.2 | 0.00 | 0.00 | 0.00 | 87 | 1015.9 |
| 20260831121247 | 24 | 152 | 1.6 | 4.8 | 0.00 | 0.00 | 0.00 | 87 | 1015.9 |
| 20260831120747 | 24 | 155 | 1.6 | 4.8 | 0.00 | 0.00 | 0.00 | 87 | 1015.7 |
| 20260831115745 | 24 | 156 | 1.6 | 3.2 | 0.00 | 0.00 | 0.00 | 86 | 1015.6 |
| 20260831115245 | 24 | 155 | 1.6 | 3.2 | 0.00 | 0.00 | 0.00 | 86 | 1015.4 |
| 20260831114745 | 24 | 154 | 1.6 | 3.2 | 0.00 | 0.00 | 0.00 | 85 | 1015.4 |
| 20260831114246 | 24 | 160 | 1.6 | 4.8 | 0.00 | 0.00 | 0.00 | 84 | 1015.5 |
| 20260831113747 | 24 | 0 | 0.0 | 4.8 | 0.00 | 0.00 | 0.00 | 84 | 1015.4 |
| 20260831113245 | 24 | 0 | 0.0 | 1.6 | 0.00 | 0.00 | 0.00 | 84 | 1015.3 |
| 20260831112246 | 24 | 0 | 0.0 | 1.6 | 0.00 | 0.00 | 0.00 | 84 | 1015.3 |
| 20260831111745 | 24 | 0 | 0.0 | 1.6 | 0.00 | 0.00 | 0.00 | 84 | 1015.2 |
| 20260831111247 | 25 | 0 | 0.0 | 1.6 | 0.00 | 0.00 | 0.00 | 83 | 1015.2 |
| 20260831110746 | 25 | 0 | 0.0 | 1.6 | 0.00 | 0.00 | 0.00 | 83 | 1015.2 |
| 20260831110245 | 25 | 0 | 0.0 | 1.6 | 0.00 | 0.00 | 0.00 | 83 | 1015.1 |
| 20260831105745 | 25 | 0 | 0.0 | 1.6 | 0.00 | 0.00 | 0.00 | 82 | 1015.1 |
| 20260831104245 | 25 | 0 | 0.0 | 3.2 | 0.00 | 0.00 | 0.00 | 82 | 1015.1 |
| 20260831103746 | 25 | 170 | 1.6 | 3.2 | 0.00 | 0.00 | 0.00 | 81 | 1015.1 |
| 20260831103245 | 25 | 168 | 1.6 | 3.2 | 0.00 | 0.00 | 0.00 | 81 | 1015.1 |
| 20260831102745 | 25 | 171 | 1.6 | 3.2 | 0.00 | 0.00 | 0.00 | 81 | 1015.1 |
| 20260831102245 | 25 | 178 | 1.6 | 3.2 | 0.00 | 0.00 | 0.00 | 80 | 1015.1 |
| 20260831101747 | 25 | 179 | 1.6 | 3.2 | 0.00 | 0.00 | 0.00 | 80 | 1015.1 |
| 20260831100745 | 25 | 174 | 1.6 | 3.2 | 0.00 | 0.00 | 0.00 | 79 | 1015.1 |
| 20260831100245 | 25 | 168 | 1.6 | 4.8 | 0.00 | 0.00 | 0.00 | 78 | 1015.0 |
| 20260831095746 | 25 | 168 | 1.6 | 6.4 | 0.00 | 0.00 | 0.00 | 78 | 1015.0 |
| 20260831095244 | 25 | 170 | 1.6 | 6.4 | 0.00 | 0.00 | 0.00 | 78 | 1014.9 |
| 20260831094745 | 26 | 172 | 1.6 | 4.8 | 0.00 | 0.00 | 0.00 | 77 | 1014.9 |
| 20260831094245 | 26 | 168 | 1.6 | 4.8 | 0.00 | 0.00 | 0.00 | 77 | 1014.9 |
| 20260831093746 | 26 | 171 | 1.6 | 4.8 | 0.00 | 0.00 | 0.00 | 76 | 1014.9 |
| 20260831093245 | 26 | 182 | 1.6 | 3.2 | 0.00 | 0.00 | 0.00 | 76 | 1015.0 |
| 20260831092745 | 26 | 175 | 1.6 | 4.8 | 0.00 | 0.00 | 0.00 | 75 | 1015.0 |
| 20260831092245 | 26 | 168 | 1.6 | 4.8 | 0.00 | 0.00 | 0.00 | 75 | 1014.9 |
| 20260831090746 | 26 | 172 | 1.6 | 3.2 | 0.00 | 0.00 | 0.00 | 74 | 1014.8 |
| 20260831090245 | 26 | 170 | 1.6 | 4.8 | 0.00 | 0.00 | 0.00 | 73 | 1014.7 |
| 20260831085746 | 26 | 167 | 1.6 | 4.8 | 0.00 | 0.00 | 0.00 | 73 | 1014.7 |
| 20260831084745 | 26 | 167 | 1.6 | 4.8 | 0.00 | 0.00 | 0.00 | 73 | 1014.7 |
| 20260831084245 | 26 | 167 | 1.6 | 4.8 | 0.00 | 0.00 | 0.00 | 72 | 1014.7 |
| 20260831083245 | 26 | 171 | 1.6 | 4.8 | 0.00 | 0.00 | 0.00 | 72 | 1014.7 |
| 20260831082745 | 27 | 175 | 1.6 | 3.2 | 0.00 | 0.00 | 0.00 | 71 | 1014.6 |
| 20260831081747 | 27 | 166 | 1.6 | 3.2 | 0.00 | 0.00 | 0.00 | 71 | 1014.6 |
| 20260831081245 | 27 | 159 | 1.6 | 4.8 | 0.00 | 0.00 | 0.00 | 70 | 1014.7 |
| 20260831080746 | 27 | 157 | 1.6 | 4.8 | 0.00 | 0.00 | 0.00 | 70 | 1014.7 |
| 20260831075745 | 27 | 162 | 1.6 | 6.4 | 0.00 | 0.00 | 0.00 | 69 | 1014.7 |
| 20260831075246 | 27 | 158 | 1.6 | 4.8 | 0.00 | 0.00 | 0.00 | 69 | 1014.7 |
| 20260831074745 | 27 | 159 | 1.6 | 8.0 | 0.00 | 0.00 | 0.00 | 68 | 1014.8 |
| 20260831073746 | 27 | 162 | 3.2 | 6.4 | 0.00 | 0.00 | 0.00 | 68 | 1014.9 |
| 20260831073245 | 27 | 160 | 3.2 | 8.0 | 0.00 | 0.00 | 0.00 | 67 | 1014.8 |
| 20260831072247 | 28 | 169 | 1.6 | 4.8 | 0.00 | 0.00 | 0.00 | 66 | 1014.9 |
| 20260831071745 | 28 | 174 | 1.6 | 4.8 | 0.00 | 0.00 | 0.00 | 66 | 1014.9 |
| 20260831071246 | 28 | 172 | 1.6 | 4.8 | 0.00 | 0.00 | 0.00 | 66 | 1014.9 |
| 20260831070745 | 28 | 171 | 1.6 | 4.8 | 0.00 | 0.00 | 0.00 | 65 | 1014.9 |
| 20260831070246 | 28 | 168 | 1.6 | 4.8 | 0.00 | 0.00 | 0.00 | 65 | 1014.9 |
| 20260831065746 | 28 | 169 | 1.6 | 6.4 | 0.00 | 0.00 | 0.00 | 65 | 1014.9 |
| 20260831065246 | 28 | 170 | 1.6 | 6.4 | 0.00 | 0.00 | 0.00 | 64 | 1014.8 |
| 20260831064746 | 28 | 173 | 1.6 | 4.8 | 0.00 | 0.00 | 0.00 | 64 | 1014.8 |
| 20260831064245 | 28 | 177 | 1.6 | 3.2 | 0.00 | 0.00 | 0.00 | 63 | 1014.7 |
| 20260831063745 | 28 | 175 | 1.6 | 4.8 | 0.00 | 0.00 | 0.00 | 63 | 1014.7 |
| 20260831062747 | 28 | 173 | 1.6 | 6.4 | 0.00 | 0.00 | 0.00 | 62 | 1014.7 |
| 20260831062246 | 28 | 177 | 1.6 | 4.8 | 0.00 | 0.00 | 0.00 | 61 | 1014.7 |
| 20260831061747 | 28 | 177 | 1.6 | 6.4 | 0.00 | 0.00 | 0.00 | 61 | 1014.7 |
| 20260831061245 | 28 | 176 | 1.6 | 8.0 | 0.00 | 0.00 | 0.00 | 60 | 1014.6 |
| 20260831060746 | 28 | 175 | 1.6 | 8.0 | 0.00 | 0.00 | 0.00 | 60 | 1014.6 |
| 20260831060246 | 28 | 172 | 1.6 | 6.4 | 0.00 | 0.00 | 0.00 | 59 | 1014.6 |
| 20260831055746 | 28 | 172 | 1.6 | 6.4 | 0.00 | 0.00 | 0.00 | 59 | 1014.8 |
| 20260831055246 | 28 | 172 | 1.6 | 6.4 | 0.00 | 0.00 | 0.00 | 58 | 1014.8 |
| 20260831054745 | 29 | 173 | 1.6 | 6.4 | 0.00 | 0.00 | 0.00 | 58 | 1014.8 |
| 20260831054246 | 29 | 173 | 3.2 | 6.4 | 0.00 | 0.00 | 0.00 | 57 | 1014.8 |
| 20260831053246 | 29 | 171 | 3.2 | 8.0 | 0.00 | 0.00 | 0.00 | 57 | 1014.8 |
| 20260831052745 | 30 | 171 | 3.2 | 8.0 | 0.00 | 0.00 | 0.00 | 56 | 1014.7 |
| 20260831051747 | 30 | 176 | 4.8 | 9.7 | 0.00 | 0.00 | 0.00 | 55 | 1014.6 |
| 20260831050747 | 30 | 176 | 3.2 | 8.0 | 0.00 | 0.00 | 0.00 | 55 | 1014.5 |
| 20260831050247 | 30 | 176 | 3.2 | 8.0 | 0.00 | 0.00 | 0.00 | 54 | 1014.5 |
| 20260831045746 | 30 | 177 | 3.2 | 8.0 | 0.00 | 0.00 | 0.00 | 53 | 1014.5 |
| 20260831045247 | 30 | 177 | 3.2 | 6.4 | 0.00 | 0.00 | 0.00 | 53 | 1014.5 |
| 20260831044747 | 30 | 175 | 3.2 | 6.4 | 0.00 | 0.00 | 0.00 | 52 | 1014.5 |
| 20260831044245 | 30 | 177 | 3.2 | 8.0 | 0.00 | 0.00 | 0.00 | 52 | 1014.4 |
| 20260831043746 | 30 | 176 | 3.2 | 8.0 | 0.00 | 0.00 | 0.00 | 52 | 1014.4 |
| 20260831043245 | 30 | 170 | 3.2 | 6.4 | 0.00 | 0.00 | 0.00 | 52 | 1014.4 |
| 20260831042746 | 30 | 164 | 1.6 | 6.4 | 0.00 | 0.00 | 0.00 | 52 | 1014.4 |
| 20260831042245 | 29 | 157 | 1.6 | 6.4 | 0.00 | 0.00 | 0.00 | 52 | 1014.3 |
| 20260831041747 | 29 | 152 | 1.6 | 4.8 | 0.00 | 0.00 | 0.00 | 53 | 1014.2 |
| 20260831040745 | 29 | 144 | 1.6 | 4.8 | 0.00 | 0.00 | 0.00 | 53 | 1014.1 |
| 20260831040245 | 30 | 144 | 1.6 | 4.8 | 0.00 | 0.00 | 0.00 | 52 | 1014.1 |
| 20260831035747 | 30 | 149 | 1.6 | 3.2 | 0.00 | 0.00 | 0.00 | 52 | 1014.1 |
| 20260831034246 | 30 | 153 | 1.6 | 4.8 | 0.00 | 0.00 | 0.00 | 51 | 1013.9 |
| 20260831033746 | 30 | 155 | 1.6 | 4.8 | 0.00 | 0.00 | 0.00 | 51 | 1013.9 |
| 20260831032746 | 30 | 159 | 1.6 | 6.4 | 0.00 | 0.00 | 0.00 | 52 | 1013.7 |
| 20260831032246 | 30 | 159 | 1.6 | 6.4 | 0.00 | 0.00 | 0.00 | 52 | 1013.7 |
| 20260831031746 | 30 | 157 | 1.6 | 3.2 | 0.00 | 0.00 | 0.00 | 53 | 1013.7 |
| 20260831030746 | 30 | 151 | 1.6 | 4.8 | 0.00 | 0.00 | 0.00 | 53 | 1013.7 |
| 20260831030246 | 30 | 155 | 1.6 | 4.8 | 0.00 | 0.00 | 0.00 | 53 | 1013.6 |
| 20260831025745 | 31 | 155 | 1.6 | 4.8 | 0.00 | 0.00 | 0.00 | 52 | 1013.5 |
| 20260831025247 | 31 | 156 | 1.6 | 3.2 | 0.00 | 0.00 | 0.00 | 52 | 1013.4 |
| 20260831024745 | 31 | 157 | 1.6 | 4.8 | 0.00 | 0.00 | 0.00 | 52 | 1013.3 |
| 20260831024246 | 31 | 0 | 0.0 | 4.8 | 0.00 | 0.00 | 0.00 | 52 | 1013.2 |
| 20260831023745 | 31 | 0 | 0.0 | 1.6 | 0.00 | 0.00 | 0.00 | 51 | 1013.3 |
| 20260831023246 | 31 | 0 | 0.0 | 1.6 | 0.00 | 0.00 | 0.00 | 51 | 1013.2 |
| 20260831022746 | 31 | 0 | 0.0 | 3.2 | 0.00 | 0.00 | 0.00 | 50 | 1013.1 |
| 20260831022246 | 31 | 0 | 0.0 | 3.2 | 0.00 | 0.00 | 0.00 | 50 | 1013.0 |
| 20260831021746 | 31 | 0 | 0.0 | 3.2 | 0.00 | 0.00 | 0.00 | 50 | 1013.0 |
| 20260831021246 | 31 | 0 | 0.0 | 3.2 | 0.00 | 0.00 | 0.00 | 49 | 1012.9 |
| 20260831020745 | 31 | 0 | 0.0 | 1.6 | 0.00 | 0.00 | 0.00 | 48 | 1012.9 |
| 20260831015745 | 32 | 0 | 0.0 | 1.6 | 0.00 | 0.00 | 0.00 | 46 | 1012.8 |
| 20260831015246 | 32 | 0 | 0.0 | 3.2 | 0.00 | 0.00 | 0.00 | 45 | 1012.7 |
| 20260831014746 | 32 | 156 | 1.6 | 3.2 | 0.00 | 0.00 | 0.00 | 44 | 1012.7 |
| 20260831014246 | 32 | 156 | 1.6 | 3.2 | 0.00 | 0.00 | 0.00 | 43 | 1012.6 |
| 20260831013746 | 32 | 156 | 1.6 | 3.2 | 0.00 | 0.00 | 0.00 | 43 | 1012.6 |
| 20260831013246 | 32 | 156 | 1.6 | 3.2 | 0.00 | 0.00 | 0.00 | 43 | 1012.6 |
| 20260831012745 | 32 | 160 | 1.6 | 3.2 | 0.00 | 0.00 | 0.00 | 43 | 1012.6 |
| 20260831012247 | 32 | 163 | 1.6 | 4.8 | 0.00 | 0.00 | 0.00 | 43 | 1012.6 |
| 20260831011746 | 33 | 158 | 1.6 | 4.8 | 0.00 | 0.00 | 0.00 | 43 | 1012.5 |
| 20260831011246 | 33 | 150 | 1.6 | 3.2 | 0.00 | 0.00 | 0.00 | 43 | 1012.4 |
| 20260831010746 | 33 | 152 | 1.6 | 3.2 | 0.00 | 0.00 | 0.00 | 42 | 1012.4 |
| 20260831005745 | 33 | 151 | 3.2 | 6.4 | 0.00 | 0.00 | 0.00 | 41 | 1012.3 |
| 20260831005246 | 33 | 149 | 3.2 | 6.4 | 0.00 | 0.00 | 0.00 | 40 | 1012.3 |
| 20260831004746 | 33 | 148 | 3.2 | 6.4 | 0.00 | 0.00 | 0.00 | 39 | 1012.3 |
| 20260831004246 | 34 | 151 | 3.2 | 6.4 | 0.00 | 0.00 | 0.00 | 39 | 1012.3 |
| 20260831003747 | 34 | 153 | 3.2 | 8.0 | 0.00 | 0.00 | 0.00 | 38 | 1012.3 |
| 20260831003246 | 34 | 151 | 3.2 | 8.0 | 0.00 | 0.00 | 0.00 | 38 | 1012.2 |
| 20260831002746 | 35 | 150 | 3.2 | 8.0 | 0.00 | 0.00 | 0.00 | 38 | 1012.2 |
| 20260831002245 | 35 | 150 | 4.8 | 8.0 | 0.00 | 0.00 | 0.00 | 37 | 1012.3 |
| 20260831001746 | 35 | 149 | 3.2 | 8.0 | 0.00 | 0.00 | 0.00 | 37 | 1012.2 |
| 20260831001247 | 35 | 149 | 4.8 | 8.0 | 0.00 | 0.00 | 0.00 | 36 | 1012.3 |
| 20260831000746 | 35 | 150 | 4.8 | 8.0 | 0.00 | 0.00 | 0.00 | 36 | 1012.3 |
| 20260831000248 | 36 | 147 | 4.8 | 8.0 | 0.00 | 0.00 | 0.00 | 34 | 1012.3 |
| 20260830235247 | 36 | 145 | 4.8 | 9.7 | 0.00 | 0.00 | 0.00 | 33 | 1012.3 |
| 20260830233746 | 36 | 147 | 4.8 | 11.3 | 0.00 | 0.00 | 0.00 | 32 | 1012.3 |
| 20260830233246 | 36 | 148 | 4.8 | 9.7 | 0.00 | 0.00 | 0.00 | 32 | 1012.3 |
| 20260830232746 | 36 | 149 | 4.8 | 9.7 | 0.00 | 0.00 | 0.00 | 31 | 1012.4 |
| 20260830232245 | 36 | 148 | 4.8 | 9.7 | 0.00 | 0.00 | 0.00 | 31 | 1012.3 |
| 20260830231746 | 37 | 146 | 4.8 | 8.0 | 0.00 | 0.00 | 0.00 | 32 | 1012.3 |
| 20260830230745 | 37 | 141 | 4.8 | 9.7 | 0.00 | 0.00 | 0.00 | 30 | 1012.3 |
| 20260830230246 | 37 | 145 | 4.8 | 9.7 | 0.00 | 0.00 | 0.00 | 32 | 1012.4 |
| 20260830225745 | 37 | 154 | 4.8 | 9.7 | 0.00 | 0.00 | 0.00 | 32 | 1012.4 |
| 20260830225246 | 37 | 152 | 4.8 | 11.3 | 0.00 | 0.00 | 0.00 | 32 | 1012.4 |
| 20260830224747 | 37 | 144 | 6.4 | 11.3 | 0.00 | 0.00 | 0.00 | 32 | 1012.5 |
| 20260830223746 | 37 | 153 | 6.4 | 14.5 | 0.00 | 0.00 | 0.00 | 33 | 1012.5 |
| 20260830222745 | 37 | 150 | 3.2 | 11.3 | 0.00 | 0.00 | 0.00 | 30 | 1012.5 |
| 20260830222247 | 37 | 159 | 3.2 | 11.3 | 0.00 | 0.00 | 0.00 | 30 | 1012.5 |
| 20260830221746 | 37 | 158 | 4.8 | 12.9 | 0.00 | 0.00 | 0.00 | 29 | 1012.6 |
| 20260830221246 | 37 | 149 | 4.8 | 12.9 | 0.00 | 0.00 | 0.00 | 30 | 1012.6 |
| 20260830220747 | 37 | 148 | 4.8 | 11.3 | 0.00 | 0.00 | 0.00 | 29 | 1012.7 |